Tracking 29892 objects as of 21-Nov-2024
HD Live streaming from Space Station
objects crossing your sky now

NOAA 16 DEB

Track NOAA 16 DEB now!
10-day predictions


NORAD ID: 41085
Int'l Code: 2000-055AU
Perigee: 812.4 km
Apogee: 842.9 km
Inclination: 98.7 °
Period: 101.3 minutes
Semi major axis: 7198 km
RCS: Unknown
Launch date: September 21, 2000
Source: United States (US)
Launch site: AIR FORCE WESTERN TEST RANGE (AFWTR)

Note: This is SATELLITE DEBRIS
Your satellite tracking list
Your tracking list is empty




NASA's NSSDC Master Catalog

Two Line Element Set (TLE):
1 41085U 00055AU  24325.22328026  .00002637  00000-0  12233-2 0  9990
2 41085  98.7281  49.8870 0021182 107.7696 252.5795 14.21432758464647
Source of the keplerian elements: AFSPC